Weather History for Crane Lake, MN

Change the Weather History Date:

Tuesday, January 8, 2013

  Actual Average Record
Temperature  
Mean Temperature 22 °F -  
Max Temperature 32 °F 14 °F 46 °F (2003)
Min Temperature 12 °F 0 °F -34 °F (2014)
Degree Days  
Heating Degree Days 43    
Moisture  
Dew Point 22 °F    
Average Humidity 85    
Maximum Humidity 100    
Minimum Humidity 69    
Precipitation  
Precipitation 0.03 in - - ()
Sea Level Pressure  
Sea Level Pressure 29.79 in    
Wind  
Wind Speed 2 mph (South)    
Max Wind Speed 10 mph    
Max Gust Speed 18 mph    
Visibility 9 miles    
Events Snow    
Averages and records for this station are not official NWS values.
T = Trace of Precipitation, MM = Missing Value Source: NWS Daily Summary

Daily Weather History Graph

Daily Weather History Graph

Search for Another Location

Airport:

Trip Planner

Search our weather history database for the weather conditions in past years. The results will help you decide how hot, cold, wet, or windy it might be!

Date:

Astronomy

Jan. 08, 2013 Rise Set
Actual Time 7:59 AM CST 4:34 PM CST
Civil Twilight 7:23 AM CST 5:10 PM CST
Nautical Twilight 6:44 AM CST 5:49 PM CST
Astronomical Twilight 6:06 AM CST 6:27 PM CST
Moon 4:31 AM CST (1/8) 1:37 PM CST (1/8)
Length of Visible Light 9h 46m
Length of Day
8h 35m
Waning Crescent, 13% of the Moon is Illuminated
Jan 8
Waning Crescent
Jan 11
New
Jan 18
First Quarter
Jan 26
Full
Feb 3
Last Quarter

Hourly Weather History & Observations

Time (CST) Temp. Windchill Dew Point Humidity Pressure Visibility Wind Dir Wind Speed Gust Speed Precip Events Conditions
12:16 AM 28.4 °F - 24.8 °F 86% 29.84 in 10.0 mi Calm Calm - N/A   Overcast
12:35 AM 28.4 °F 24.6 °F 24.8 °F 86% 29.85 in 10.0 mi SSW 3.5 mph - N/A   Overcast
12:55 AM 28.4 °F 24.6 °F 24.8 °F 86% 29.84 in 10.0 mi SSW 3.5 mph - N/A   Overcast
1:15 AM 28.4 °F - 24.8 °F 86% 29.85 in 10.0 mi Calm Calm - N/A   Overcast
1:35 AM 28.4 °F - 24.8 °F 86% 29.86 in 10.0 mi Calm Calm - N/A   Overcast
1:55 AM 26.6 °F - 24.8 °F 93% 29.85 in 10.0 mi Calm Calm - N/A   Overcast
2:15 AM 26.6 °F - 24.8 °F 93% 29.87 in 10.0 mi Calm Calm - N/A   Overcast
2:35 AM 26.6 °F - 23.0 °F 86% 29.87 in 10.0 mi Calm Calm - N/A   Overcast
2:55 AM 26.6 °F - 23.0 °F 86% 29.87 in 10.0 mi Calm Calm - N/A   Overcast
3:15 AM 26.6 °F - 21.2 °F 80% 29.87 in 10.0 mi Calm Calm - N/A   Overcast
3:35 AM 26.6 °F - 23.0 °F 86% 29.87 in 10.0 mi Calm Calm - N/A   Overcast
3:55 AM 26.6 °F - 21.2 °F 80% 29.87 in 10.0 mi Calm Calm - N/A   Overcast
4:15 AM 26.6 °F 22.6 °F 21.2 °F 80% 29.87 in 10.0 mi South 3.5 mph - N/A   Overcast
4:35 AM 24.8 °F - 21.2 °F 86% 29.88 in 10.0 mi Calm Calm - N/A   Overcast
4:55 AM 23.0 °F - 19.4 °F 86% 29.89 in 10.0 mi Calm Calm - N/A   Scattered Clouds
5:15 AM 21.2 °F 16.4 °F 19.4 °F 93% 29.88 in 10.0 mi South 3.5 mph - N/A   Clear
5:35 AM 19.4 °F - 15.8 °F 86% 29.88 in 10.0 mi Calm Calm - N/A   Clear
5:55 AM 19.4 °F 14.3 °F 15.8 °F 86% 29.89 in 10.0 mi South 3.5 mph - N/A   Clear
6:15 AM 19.4 °F 14.3 °F 17.6 °F 93% 29.89 in 10.0 mi SSE 3.5 mph - N/A   Clear
6:35 AM 17.6 °F 12.3 °F 15.8 °F 93% 29.90 in 10.0 mi SSE 3.5 mph - N/A   Clear
6:55 AM 15.8 °F 10.2 °F 12.2 °F 86% 29.91 in 10.0 mi South 3.5 mph - N/A   Clear
7:15 AM 15.8 °F 8.6 °F 15.8 °F 100% 29.92 in 10.0 mi South 4.6 mph - N/A   Clear
7:35 AM 15.8 °F 10.2 °F 14.0 °F 93% 29.92 in 10.0 mi SSE 3.5 mph - N/A   Clear
7:55 AM 15.8 °F - 12.2 °F 86% 29.91 in 10.0 mi Calm Calm - N/A   Clear
8:15 AM 12.2 °F - 10.4 °F 92% 29.91 in 10.0 mi Calm Calm - N/A   Clear
8:35 AM 12.2 °F - 8.6 °F 85% 29.89 in 10.0 mi Calm Calm - N/A   Clear
8:55 AM 12.2 °F - 10.4 °F 92% 29.90 in 10.0 mi Calm Calm - N/A   Clear
9:15 AM 12.2 °F - 12.2 °F 100% 29.90 in 10.0 mi Calm Calm - N/A   Clear
9:35 AM 15.8 °F 10.2 °F 15.8 °F 100% 29.91 in 10.0 mi SSE 3.5 mph - N/A   Clear
9:55 AM 19.4 °F 14.3 °F 17.6 °F 93% 29.91 in 10.0 mi South 3.5 mph - N/A   Clear
10:15 AM 21.2 °F 13.6 °F 19.4 °F 93% 29.91 in 10.0 mi SSE 5.8 mph - N/A   Clear
10:35 AM 23.0 °F 18.4 °F 21.2 °F 93% 29.90 in 10.0 mi SSE 3.5 mph - N/A   Clear
10:55 AM 24.8 °F 17.9 °F 23.0 °F 93% 29.89 in 10.0 mi SSE 5.8 mph - N/A   Clear
11:15 AM 26.6 °F 21.2 °F 23.0 °F 86% 29.88 in 10.0 mi South 4.6 mph - N/A   Clear
11:35 AM 28.4 °F 24.6 °F 23.0 °F 80% 29.88 in 10.0 mi South 3.5 mph - N/A   Clear
11:55 AM 30.2 °F - 23.0 °F 75% 29.85 in 10.0 mi Calm Calm - N/A   Clear
12:15 PM 30.2 °F 26.7 °F 23.0 °F 75% 29.85 in 10.0 mi SE 3.5 mph - N/A   Clear
12:35 PM 30.2 °F 25.4 °F 23.0 °F 75% 29.84 in 10.0 mi SSE 4.6 mph - N/A   Clear
1:15 PM 30.2 °F 25.4 °F 21.2 °F 69% 29.83 in 10.0 mi SSE 4.6 mph - N/A   Clear
1:35 PM 30.2 °F 23.4 °F 21.2 °F 69% 29.81 in 10.0 mi South 6.9 mph - N/A   Clear
1:55 PM 30.2 °F 22.6 °F 23.0 °F 75% 29.80 in 10.0 mi SSE 8.1 mph - N/A   Scattered Clouds
2:15 PM 32.0 °F - 23.0 °F 69% 29.79 in 10.0 mi Calm Calm - N/A   Scattered Clouds
2:35 PM 32.0 °F - 23.0 °F 69% 29.78 in 10.0 mi Calm Calm - N/A   Mostly Cloudy
2:55 PM 30.2 °F - 23.0 °F 75% 29.77 in 10.0 mi Calm Calm - N/A   Mostly Cloudy
3:15 PM 32.0 °F - 23.0 °F 69% 29.76 in 10.0 mi Calm Calm - N/A   Mostly Cloudy
3:35 PM 30.2 °F - 23.0 °F 75% 29.75 in 10.0 mi Calm Calm - N/A   Overcast
3:55 PM 30.2 °F - 23.0 °F 75% 29.72 in 10.0 mi Calm Calm - N/A   Overcast
4:15 PM 30.2 °F - 23.0 °F 75% 29.71 in 10.0 mi Calm Calm - N/A   Overcast
4:35 PM 30.2 °F - 23.0 °F 75% 29.69 in 10.0 mi Calm Calm - N/A   Overcast
4:55 PM 30.2 °F - 23.0 °F 75% 29.68 in 10.0 mi Calm Calm - N/A   Overcast
5:15 PM 30.2 °F - 23.0 °F 75% 29.67 in 10.0 mi Calm Calm - N/A   Overcast
5:35 PM 30.2 °F 26.7 °F 23.0 °F 75% 29.67 in 10.0 mi SSE 3.5 mph - N/A   Overcast
5:55 PM 30.2 °F 26.7 °F 23.0 °F 75% 29.66 in 10.0 mi SSE 3.5 mph - N/A   Overcast
6:35 PM 30.2 °F 24.3 °F 23.0 °F 75% 29.65 in 10.0 mi SSE 5.8 mph - N/A   Overcast
6:55 PM 30.2 °F 21.3 °F 24.8 °F 80% 29.65 in 10.0 mi SSE 10.4 mph 18.4 mph N/A   Overcast
7:15 PM 30.2 °F 23.4 °F 24.8 °F 80% 29.64 in 0.5 mi SSE 6.9 mph - N/A Snow Light Snow
7:35 PM 28.4 °F 21.2 °F 26.6 °F 93% 29.64 in 1.5 mi SSE 6.9 mph - N/A Snow Light Snow
7:55 PM 28.4 °F 23.3 °F 26.6 °F 93% 29.64 in 1.5 mi South 4.6 mph - 0.01 in Snow Light Snow
8:15 PM 28.4 °F 23.3 °F 26.6 °F 93% 29.63 in 1.0 mi South 4.6 mph - 0.01 in Snow Light Snow
8:35 PM 28.4 °F 23.3 °F 26.6 °F 93% 29.63 in 1.0 mi South 4.6 mph - 0.01 in Snow Light Snow
8:55 PM 28.4 °F 23.3 °F 26.6 °F 93% 29.62 in 1.0 mi South 4.6 mph - 0.02 in Snow Light Snow
9:15 PM 28.4 °F 22.2 °F 26.6 °F 93% 29.61 in 4.0 mi South 5.8 mph - N/A Snow Light Snow
9:35 PM 28.4 °F 21.2 °F 26.6 °F 93% 29.61 in 10.0 mi SSW 6.9 mph - N/A   Overcast
9:55 PM 28.4 °F 23.3 °F 26.6 °F 93% 29.61 in 7.0 mi SSW 4.6 mph - N/A   Overcast
10:15 PM 28.4 °F 22.2 °F 26.6 °F 93% 29.61 in 7.0 mi SSW 5.8 mph - N/A   Overcast
10:35 PM 28.4 °F 23.3 °F 26.6 °F 93% 29.60 in 7.0 mi SSW 4.6 mph - N/A   Overcast
10:55 PM 28.4 °F 24.6 °F 26.6 °F 93% 29.61 in 7.0 mi SSW 3.5 mph - N/A   Overcast
11:02 PM 28.4 °F 22.2 °F 26.6 °F 93% 29.61 in 7.0 mi South 5.8 mph - N/A   Overcast
11:15 PM 28.4 °F 22.2 °F 26.6 °F 93% 29.61 in 7.0 mi South 5.8 mph - N/A   Overcast
11:35 PM 28.4 °F 23.3 °F 26.6 °F 93% 29.60 in 10.0 mi South 4.6 mph - N/A   Overcast